Starlink 2036

operational
NORAD ID: 47652 Int'l Des: 2021-012 Owner: SPXS Country: US Constellation: starlink
LEOCIRCULARSTARLINK_TYPE

Über Starlink 2036

Beschreibung wird geladen...

Live-Position

3D-Globus wird geladen...

Nächste Überflüge

Höhenverlauf

Altitude vs Time

uPlot chart will show altitude changes over time

Zweizeiliger Elementsatz

1 47652U 21012AJ 26033.66670139 .00907194 00000-0 30298-1 0 9995
2 47652 53.1490 227.5538 0001144 88.4162 337.7647 15.28105175 5747
Epoch: 2. Feb. 2026 • Age: 9 hours

Aktueller Status

Höhe 485.1 km
Geschwindigkeit 7.63 km/s
Subsatellitenpunkt 52.65°N, 147.71°E
Startdatum 16. Feb. 2021
Alter 4.9 years
Typ internet

Technische Details

Klassifizierung Payload
Masse 260.00 kg
Trockenmasse 248.00 kg
Gesamtmasse 260.00 kg
Länge 0.20 m
Durchmesser 2.80 m
Spannweite 9.00 m
Form Box + pan
Hersteller SPXS
Bus-Typ Starlink
Phasenstatus In Orbit
Besitzer/Staat SPXS/US

Große Konstellationen

Loading constellations...